Location: Mercogliano
(40.9167°N, 14.7333°E)
Time: 05:03:37
(UTC+00:00)

Cosmos 158 Rocket - Pass Details

Date: 18 September 2020
Orbit: 699 x 793 km, 74.0° (Epoch: 25 October)

Event Time Altitude Azimuth Distance (km) Brightness Sun altitude
Rises 17:33:58 0° 340° (NNW) 3,266 7.7 -6.4°
Reaches altitude 10° 17:36:23 10° 340° (NNW) 2,323 6.9 -6.8°
Maximum altitude 17:41:40 86° 254° (WSW) 764 4.1 -7.8°
Drops below altitude 10° 17:46:46 10° 164° (SSE) 2,245 6.2 -8.8°
Sets 17:49:05 0° 164° (SSE) 3,149 6.9 -9.2°
